Time,TemperatureF,DewpointF,PressureIn,WindDirection,WindDirectionDegrees,WindSpeedMPH,WindSpeedGustMPH,Humidity,HourlyPrecipIn,Conditions,Clouds,dailyrainin,SoftwareType,DateUTC
2013-06-19 00:02:00,81.0,81.0,29.93,North,360,4.0,-999.0,100,-99.99,,,-99.99,,2013-06-19 04:02:00,
2013-06-19 00:12:00,81.0,81.0,29.93,NE,39,5.0,-999.0,100,-99.99,,,-99.99,,2013-06-19 04:12:00,
2013-06-19 00:23:00,81.0,81.0,29.93,NE,39,5.0,-999.0,100,-99.99,,,-99.99,,2013-06-19 04:23:00,
2013-06-19 00:33:00,81.0,81.0,29.93,NE,39,5.0,-999.0,100,-99.99,,,-99.99,,2013-06-19 04:33:00,
2013-06-19 00:43:00,81.0,81.0,29.93,NE,39,5.0,-999.0,100,-99.99,,,-99.99,,2013-06-19 04:43:00,
2013-06-19 00:53:00,81.0,81.0,29.93,NE,39,5.0,-999.0,100,-99.99,,,-99.99,,2013-06-19 04:53:00,
2013-06-19 01:01:00,81.0,81.0,29.93,NNE,13,5.0,-999.0,100,-99.99,,,-99.99,,2013-06-19 05:01:00,
2013-06-19 01:11:00,81.0,81.0,29.93,NNE,13,5.0,-999.0,100,-99.99,,,-99.99,,2013-06-19 05:11:00,
2013-06-19 01:23:00,81.0,81.0,29.93,NNE,13,5.0,-999.0,100,-99.99,,,-99.99,,2013-06-19 05:23:00,
2013-06-19 01:32:00,81.0,81.0,29.92,North,360,4.0,-999.0,100,-99.99,,,-99.99,,2013-06-19 05:32:00,
2013-06-19 01:43:00,81.0,81.0,29.92,North,360,4.0,-999.0,100,-99.99,,,-99.99,,2013-06-19 05:43:00,
2013-06-19 01:52:00,81.0,81.0,29.92,North,360,4.0,-999.0,100,-99.99,,,-99.99,,2013-06-19 05:52:00,
2013-06-19 02:02:00,81.0,81.0,29.91,North,350,4.0,-999.0,100,-99.99,,,-99.99,,2013-06-19 06:02:00,
2013-06-19 02:11:00,81.0,81.0,29.91,North,350,4.0,-999.0,100,-99.99,,,-99.99,,2013-06-19 06:11:00,
2013-06-19 02:22:00,81.0,81.0,29.91,North,355,3.0,-999.0,100,-99.99,,,-99.99,,2013-06-19 06:22:00,
2013-06-19 02:34:00,81.0,81.0,29.92,NNE,18,3.0,-999.0,100,-99.99,,,-99.99,,2013-06-19 06:34:00,
2013-06-19 02:42:00,81.0,81.0,29.92,ENE,65,4.0,-999.0,100,-99.99,,,-99.99,,2013-06-19 06:42:00,
2013-06-19 02:52:00,81.0,81.0,29.92,ENE,65,4.0,-999.0,100,-99.99,,,-99.99,,2013-06-19 06:52:00,
2013-06-19 03:01:00,82.0,82.0,29.91,NNE,14,3.0,-999.0,100,-99.99,,,-99.99,,2013-06-19 07:01:00,
2013-06-19 03:12:00,82.0,82.0,29.91,NE,42,5.0,-999.0,100,-99.99,,,-99.99,,2013-06-19 07:12:00,
2013-06-19 03:22:00,82.0,82.0,29.91,NE,42,5.0,-999.0,100,-99.99,,,-99.99,,2013-06-19 07:22:00,
2013-06-19 03:33:00,82.0,82.0,29.91,NE,35,5.0,-999.0,100,-99.99,,,-99.99,,2013-06-19 07:33:00,
2013-06-19 03:43:00,82.0,82.0,29.91,ENE,64,5.0,-999.0,100,-99.99,,,-99.99,,2013-06-19 07:43:00,
2013-06-19 03:53:00,82.0,82.0,29.91,ENE,64,5.0,-999.0,100,-99.99,,,-99.99,,2013-06-19 07:53:00,
2013-06-19 04:02:00,81.0,81.0,29.92,NE,44,5.0,-999.0,100,-99.99,,,-99.99,,2013-06-19 08:02:00,
2013-06-19 04:11:00,81.0,81.0,29.91,North,11,5.0,-999.0,100,-99.99,,,-99.99,,2013-06-19 08:11:00,
2013-06-19 04:22:00,81.0,81.0,29.91,North,11,5.0,-999.0,100,-99.99,,,-99.99,,2013-06-19 08:22:00,
2013-06-19 04:34:00,81.0,81.0,29.91,NE,40,4.0,-999.0,100,-99.99,,,-99.99,,2013-06-19 08:34:00,
2013-06-19 04:43:00,80.0,80.0,29.92,NE,35,4.0,-999.0,100,-99.99,,,-99.99,,2013-06-19 08:43:00,
2013-06-19 04:53:00,80.0,80.0,29.92,NE,35,4.0,-999.0,100,-99.99,,,-99.99,,2013-06-19 08:53:00,
2013-06-19 05:02:00,80.0,80.0,29.92,ENE,57,3.0,-999.0,100,-99.99,,,-99.99,,2013-06-19 09:02:00,
2013-06-19 05:12:00,80.0,80.0,29.92,NNE,17,3.0,-999.0,100,-99.99,,,-99.99,,2013-06-19 09:12:00,
2013-06-19 05:22:00,80.0,80.0,29.92,NNE,17,3.0,-999.0,100,-99.99,,,-99.99,,2013-06-19 09:22:00,
2013-06-19 05:34:00,80.0,80.0,29.93,NNE,31,3.0,-999.0,100,-99.99,,,-99.99,,2013-06-19 09:34:00,
2013-06-19 05:44:00,80.0,80.0,29.93,North,5,3.0,-999.0,100,-99.99,,,-99.99,,2013-06-19 09:44:00,
2013-06-19 05:53:00,80.0,80.0,29.93,North,5,3.0,-999.0,100,-99.99,,,-99.99,,2013-06-19 09:53:00,
2013-06-19 06:02:00,80.0,80.0,29.93,NNE,19,3.0,-999.0,100,-99.99,,,-99.99,,2013-06-19 10:02:00,
2013-06-19 06:12:00,80.0,80.0,29.93,NE,55,3.0,-999.0,100,-99.99,,,-99.99,,2013-06-19 10:12:00,
2013-06-19 06:22:00,80.0,80.0,29.93,NE,55,3.0,-999.0,100,-99.99,,,-99.99,,2013-06-19 10:22:00,
2013-06-19 06:33:00,80.0,80.0,29.93,NNE,13,3.0,-999.0,100,-99.99,,,-99.99,,2013-06-19 10:33:00,
2013-06-19 06:42:00,79.0,79.0,29.94,NNE,30,2.0,-999.0,100,-99.99,,,-99.99,,2013-06-19 10:42:00,
2013-06-19 06:52:00,79.0,79.0,29.94,NNE,30,2.0,-999.0,100,-99.99,,,-99.99,,2013-06-19 10:52:00,
2013-06-19 07:02:00,79.0,79.0,29.94,NE,39,2.0,-999.0,100,-99.99,,,-99.99,,2013-06-19 11:02:00,
2013-06-19 07:12:00,79.0,79.0,29.94,NE,39,2.0,-999.0,100,-99.99,,,-99.99,,2013-06-19 11:12:00,
2013-06-19 07:22:00,79.0,79.0,29.95,NNE,24,2.0,-999.0,100,-99.99,,,-99.99,,2013-06-19 11:22:00,
2013-06-19 07:33:00,79.0,79.0,29.95,NNE,24,2.0,-999.0,100,-99.99,,,-99.99,,2013-06-19 11:33:00,
2013-06-19 07:43:00,78.0,78.0,29.95,ENE,58,1.0,-999.0,100,-99.99,,,-99.99,,2013-06-19 11:43:00,
2013-06-19 07:54:00,78.0,78.0,29.96,NE,37,3.0,-999.0,100,-99.99,,,-99.99,,2013-06-19 11:54:00,
2013-06-19 08:02:00,78.0,78.0,29.97,NE,34,3.0,-999.0,100,-99.99,,,-99.99,,2013-06-19 12:02:00,
2013-06-19 08:12:00,78.0,78.0,29.97,NE,34,3.0,-999.0,100,-99.99,,,-99.99,,2013-06-19 12:12:00,
2013-06-19 08:22:00,78.0,78.0,29.98,ENE,59,4.0,-999.0,100,-99.99,,,-99.99,,2013-06-19 12:22:00,
2013-06-19 08:34:00,78.0,78.0,29.98,ENE,59,4.0,-999.0,100,-99.99,,,-99.99,,2013-06-19 12:34:00,
2013-06-19 08:44:00,78.0,78.0,29.98,NE,42,5.0,-999.0,100,-99.99,,,-99.99,,2013-06-19 12:44:00,
2013-06-19 08:53:00,77.0,77.0,29.97,North,11,1.0,-999.0,100,-99.99,,,-99.99,,2013-06-19 12:53:00,
2013-06-19 09:02:00,77.0,77.0,29.97,North,11,1.0,-999.0,100,-99.99,,,-99.99,,2013-06-19 13:02:00,
2013-06-19 09:12:00,77.0,77.0,29.98,NE,34,1.0,-999.0,100,-99.99,,,-99.99,,2013-06-19 13:12:00,
2013-06-19 09:22:00,79.0,79.0,29.98,ENE,76,1.0,-999.0,100,-99.99,,,-99.99,,2013-06-19 13:22:00,
2013-06-19 09:33:00,79.0,79.0,29.98,ENE,76,1.0,-999.0,100,-99.99,,,-99.99,,2013-06-19 13:33:00,
2013-06-19 09:43:00,80.0,80.0,29.98,NNE,18,2.0,-999.0,100,-99.99,,,-99.99,,2013-06-19 13:43:00,
2013-06-19 09:54:00,81.0,81.0,29.98,ENE,66,2.0,-999.0,100,-99.99,,,-99.99,,2013-06-19 13:54:00,
2013-06-19 10:02:00,81.0,81.0,29.98,ENE,66,2.0,-999.0,100,-99.99,,,-99.99,,2013-06-19 14:02:00,
2013-06-19 11:22:00,82.0,82.0,29.99,ENE,65,3.0,-999.0,100,-99.99,,,-99.99,,2013-06-19 15:22:00,
2013-06-19 12:22:00,83.0,83.0,29.99,ENE,61,1.0,-999.0,100,-99.99,,,-99.99,,2013-06-19 16:22:00,
2013-06-19 13:22:00,86.0,86.0,29.98,NE,45,1.0,-999.0,100,-99.99,,,-99.99,,2013-06-19 17:22:00,
2013-06-19 14:33:00,80.0,80.0,29.97,NNW,340,3.0,-999.0,100,-99.99,,,-99.99,,2013-06-19 18:33:00,
2013-06-19 14:44:00,80.0,80.0,29.97,NNW,340,3.0,-999.0,100,-99.99,,,-99.99,,2013-06-19 18:44:00,
2013-06-19 14:53:00,80.0,80.0,29.97,NNE,32,1.0,-999.0,100,-99.99,,,-99.99,,2013-06-19 18:53:00,
2013-06-19 15:01:00,80.0,80.0,29.97,WNW,297,2.0,-999.0,100,-99.99,,,-99.99,,2013-06-19 19:01:00,
2013-06-19 15:12:00,80.0,80.0,29.97,WNW,297,2.0,-999.0,100,-99.99,,,-99.99,,2013-06-19 19:12:00,
2013-06-19 15:22:00,78.0,78.0,29.97,NW,318,3.0,-999.0,100,-99.99,,,-99.99,,2013-06-19 19:22:00,
2013-06-19 15:32:00,77.0,77.0,29.97,NE,55,3.0,-999.0,100,-99.99,,,-99.99,,2013-06-19 19:32:00,
2013-06-19 15:43:00,77.0,77.0,29.97,NE,55,3.0,-999.0,100,-99.99,,,-99.99,,2013-06-19 19:43:00,
2013-06-19 15:53:00,76.0,76.0,29.96,North,5,1.0,-999.0,100,-99.99,,,-99.99,,2013-06-19 19:53:00,
2013-06-19 16:02:00,76.0,76.0,29.96,North,5,1.0,-999.0,100,-99.99,,,-99.99,,2013-06-19 20:02:00,
2013-06-19 16:11:00,76.0,76.0,29.97,NE,36,0.0,-999.0,100,-99.99,,,-99.99,,2013-06-19 20:11:00,
2013-06-19 16:22:00,76.0,76.0,29.99,SE,138,0.0,-999.0,100,-99.99,,,-99.99,,2013-06-19 20:22:00,
2013-06-19 16:33:00,76.0,76.0,29.99,SE,138,0.0,-999.0,100,-99.99,,,-99.99,,2013-06-19 20:33:00,
2013-06-19 16:42:00,76.0,76.0,29.99,SE,146,2.0,-999.0,100,-99.99,,,-99.99,,2013-06-19 20:42:00,
2013-06-19 16:52:00,75.0,75.0,29.99,SE,146,9.0,-999.0,100,-99.99,,,-99.99,,2013-06-19 20:52:00,
2013-06-19 17:02:00,75.0,75.0,29.99,SE,146,9.0,-999.0,100,-99.99,,,-99.99,,2013-06-19 21:02:00,
2013-06-19 17:12:00,74.0,74.0,30.01,SE,124,7.0,-999.0,100,-99.99,,,-99.99,,2013-06-19 21:12:00,
2013-06-19 17:22:00,73.0,73.0,29.99,SSW,198,5.0,-999.0,100,-99.99,,,-99.99,,2013-06-19 21:22:00,
2013-06-19 17:33:00,73.0,73.0,29.99,SSW,198,5.0,-999.0,100,-99.99,,,-99.99,,2013-06-19 21:33:00,
2013-06-19 17:44:00,73.0,73.0,29.98,SSW,197,1.0,-999.0,100,-99.99,,,-99.99,,2013-06-19 21:44:00,
2013-06-19 17:52:00,73.0,73.0,29.97,SSW,197,0.0,-999.0,100,-99.99,,,-99.99,,2013-06-19 21:52:00,
2013-06-19 18:02:00,73.0,73.0,29.98,WNW,283,0.0,-999.0,100,-99.99,,,-99.99,,2013-06-19 22:02:00,
2013-06-19 18:11:00,73.0,73.0,29.98,WNW,283,0.0,-999.0,100,-99.99,,,-99.99,,2013-06-19 22:11:00,
2013-06-19 18:22:00,73.0,73.0,29.99,WNW,282,0.0,-999.0,100,-99.99,,,-99.99,,2013-06-19 22:22:00,
2013-06-19 18:34:00,73.0,73.0,29.99,West,268,0.0,-999.0,100,-99.99,,,-99.99,,2013-06-19 22:34:00,
2013-06-19 18:43:00,73.0,73.0,29.99,West,268,0.0,-999.0,100,-99.99,,,-99.99,,2013-06-19 22:43:00,
2013-06-19 18:53:00,73.0,73.0,29.99,South,178,0.0,-999.0,100,-99.99,,,-99.99,,2013-06-19 22:53:00,
2013-06-19 19:02:00,73.0,73.0,29.99,South,178,0.0,-999.0,100,-99.99,,,-99.99,,2013-06-19 23:02:00,
2013-06-19 19:12:00,73.0,73.0,29.99,South,180,0.0,-999.0,100,-99.99,,,-99.99,,2013-06-19 23:12:00,
2013-06-19 19:23:00,73.0,73.0,29.98,SW,216,0.0,-999.0,100,-99.99,,,-99.99,,2013-06-19 23:23:00,
2013-06-19 19:34:00,73.0,73.0,29.98,SW,216,0.0,-999.0,100,-99.99,,,-99.99,,2013-06-19 23:34:00,
2013-06-19 19:43:00,74.0,74.0,29.97,SW,235,3.0,-999.0,100,-99.99,,,-99.99,,2013-06-19 23:43:00,
2013-06-19 19:52:00,74.0,74.0,29.99,SW,216,2.0,-999.0,100,-99.99,,,-99.99,,2013-06-19 23:52:00,
2013-06-19 20:02:00,74.0,74.0,30.00,WSW,240,3.0,-999.0,100,-99.99,,,-99.99,,2013-06-20 00:02:00,
2013-06-19 20:12:00,74.0,74.0,30.00,WSW,240,3.0,-999.0,100,-99.99,,,-99.99,,2013-06-20 00:12:00,
2013-06-19 20:22:00,74.0,74.0,30.01,SSW,204,1.0,-999.0,100,-99.99,,,-99.99,,2013-06-20 00:22:00,
2013-06-19 20:33:00,73.0,73.0,30.03,North,360,0.0,-999.0,100,-99.99,,,-99.99,,2013-06-20 00:33:00,
2013-06-19 20:44:00,73.0,73.0,30.03,North,360,0.0,-999.0,100,-99.99,,,-99.99,,2013-06-20 00:44:00,
2013-06-19 20:52:00,74.0,74.0,30.03,WSW,250,0.0,-999.0,100,-99.99,,,-99.99,,2013-06-20 00:52:00,
2013-06-19 21:02:00,74.0,74.0,30.03,WSW,250,0.0,-999.0,100,-99.99,,,-99.99,,2013-06-20 01:02:00,
2013-06-19 21:11:00,74.0,74.0,30.04,WSW,250,0.0,-999.0,100,-99.99,,,-99.99,,2013-06-20 01:11:00,
2013-06-19 21:22:00,74.0,74.0,30.04,WSW,250,0.0,-999.0,100,-99.99,,,-99.99,,2013-06-20 01:22:00,
2013-06-19 21:33:00,74.0,74.0,30.04,WSW,250,0.0,-999.0,100,-99.99,,,-99.99,,2013-06-20 01:33:00,
2013-06-19 21:44:00,74.0,74.0,30.04,WSW,250,0.0,-999.0,100,-99.99,,,-99.99,,2013-06-20 01:44:00,
2013-06-19 21:53:00,74.0,74.0,30.03,West,273,3.0,-999.0,100,-99.99,,,-99.99,,2013-06-20 01:53:00,
2013-06-19 22:02:00,74.0,74.0,30.03,West,273,3.0,-999.0,100,-99.99,,,-99.99,,2013-06-20 02:02:00,
2013-06-19 22:12:00,74.0,74.0,30.03,West,260,3.0,-999.0,100,-99.99,,,-99.99,,2013-06-20 02:12:00,
2013-06-19 22:24:00,74.0,74.0,30.04,North,360,5.0,-999.0,100,-99.99,,,-99.99,,2013-06-20 02:24:00,
2013-06-19 22:34:00,74.0,74.0,30.04,North,360,5.0,-999.0,100,-99.99,,,-99.99,,2013-06-20 02:34:00,
2013-06-19 22:43:00,74.0,74.0,30.05,West,263,7.0,-999.0,100,-99.99,,,-99.99,,2013-06-20 02:43:00,
2013-06-19 22:52:00,75.0,75.0,30.05,WNW,285,8.0,-999.0,100,-99.99,,,-99.99,,2013-06-20 02:52:00,
2013-06-19 23:02:00,75.0,75.0,30.05,WNW,285,8.0,-999.0,100,-99.99,,,-99.99,,2013-06-20 03:02:00,
2013-06-19 23:12:00,74.0,74.0,30.05,West,273,6.0,-999.0,100,-99.99,,,-99.99,,2013-06-20 03:12:00,
2013-06-19 23:22:00,74.0,74.0,30.05,WNW,285,6.0,-999.0,100,-99.99,,,-99.99,,2013-06-20 03:22:00,
2013-06-19 23:33:00,74.0,74.0,30.05,WNW,285,6.0,-999.0,100,-99.99,,,-99.99,,2013-06-20 03:33:00,
2013-06-19 23:43:00,75.0,75.0,30.05,NW,306,4.0,-999.0,100,-99.99,,,-99.99,,2013-06-20 03:43:00,
2013-06-19 23:53:00,75.0,75.0,30.05,WSW,257,5.0,-999.0,100,-99.99,,,-99.99,,2013-06-20 03:53:00,